Satellite-Ground Cal/Val Region Overpasses Predictions

Prediction of Satellite NPP Overpassing Cal/Val Region: PacNW

Region Location: (Latitude: 10.00, Longitude: 139.50) to (Latitude: 22.70, Longitude: 165.60).

Table of predicted overpasses for the next 14.0 days since TLE Epoch: 6/1/2019
Interval Starting Time Starting Location Ending Time Ending Location
1 06/01/2019 03:42:47 ( 10.03, 143.99) 06/01/2019 03:46:22 ( 22.65, 140.99)
2 06/01/2019 14:34:21 ( 18.55, 165.59) 06/01/2019 14:36:46 ( 10.04, 163.60)
3 06/01/2019 16:14:41 ( 22.65, 141.22) 06/01/2019 16:16:42 ( 15.56, 139.50)
4 06/02/2019 03:23:45 ( 10.02, 148.75) 06/02/2019 03:27:20 ( 22.64, 145.75)
5 06/02/2019 15:55:39 ( 22.66, 145.98) 06/02/2019 15:59:14 ( 10.04, 142.98)
6 06/03/2019 03:04:44 ( 10.02, 153.51) 06/03/2019 03:08:19 ( 22.64, 150.50)
7 06/03/2019 15:36:38 ( 22.66, 150.74) 06/03/2019 15:40:13 ( 10.04, 147.73)
8 06/04/2019 02:45:42 ( 10.02, 158.26) 06/04/2019 02:49:18 ( 22.70, 155.25)
9 06/04/2019 15:17:36 ( 22.66, 155.50) 06/04/2019 15:21:11 ( 10.04, 152.49)
10 06/05/2019 02:26:41 ( 10.02, 163.02) 06/05/2019 02:30:17 ( 22.70, 160.00)
11 06/05/2019 14:58:35 ( 22.66, 160.25) 06/05/2019 15:02:10 ( 10.04, 157.25)
12 06/06/2019 02:10:17 ( 19.29, 165.60) 06/06/2019 02:11:15 ( 22.69, 164.76)
13 06/06/2019 03:49:09 ( 10.02, 142.40) 06/06/2019 03:52:37 ( 22.23, 139.50)
14 06/06/2019 14:39:33 ( 22.67, 165.01) 06/06/2019 14:43:08 ( 10.05, 162.01)
15 06/06/2019 16:21:03 ( 22.66, 139.63) 06/06/2019 16:21:12 ( 22.13, 139.50)
16 06/07/2019 03:30:08 ( 10.02, 147.16) 06/07/2019 03:33:44 ( 22.70, 144.14)
17 06/07/2019 16:02:02 ( 22.66, 144.39) 06/07/2019 16:05:37 ( 10.04, 141.39)
18 06/08/2019 03:11:06 ( 10.02, 151.92) 06/08/2019 03:14:42 ( 22.70, 148.90)
19 06/08/2019 15:43:00 ( 22.67, 149.15) 06/08/2019 15:46:35 ( 10.05, 146.14)
20 06/09/2019 02:52:05 ( 10.02, 156.67) 06/09/2019 02:55:41 ( 22.70, 153.65)
21 06/09/2019 15:23:59 ( 22.67, 153.90) 06/09/2019 15:27:34 ( 10.05, 150.90)
22 06/10/2019 02:33:04 ( 10.01, 161.43) 06/10/2019 02:36:40 ( 22.70, 158.41)
23 06/10/2019 15:04:57 ( 22.67, 158.66) 06/10/2019 15:08:32 ( 10.05, 155.66)
24 06/11/2019 02:14:46 ( 12.60, 165.59) 06/11/2019 02:17:38 ( 22.69, 163.17)
25 06/11/2019 03:55:32 ( 10.02, 140.81) 06/11/2019 03:57:08 ( 15.66, 139.50)
26 06/11/2019 14:45:56 ( 22.67, 163.42) 06/11/2019 14:49:31 ( 10.05, 160.41)
27 06/12/2019 03:36:31 ( 10.02, 145.57) 06/12/2019 03:40:07 ( 22.70, 142.55)
28 06/12/2019 14:29:58 ( 11.87, 165.59) 06/12/2019 14:30:29 ( 10.05, 165.17)
29 06/12/2019 16:08:24 ( 22.66, 142.80) 06/12/2019 16:11:59 ( 10.04, 139.80)
30 06/13/2019 03:17:29 ( 10.02, 150.32) 06/13/2019 03:21:05 ( 22.70, 147.31)
31 06/13/2019 15:49:23 ( 22.66, 147.56) 06/13/2019 15:52:58 ( 10.04, 144.55)
32 06/14/2019 02:58:28 ( 10.02, 155.08) 06/14/2019 03:02:03 ( 22.64, 152.08)


NCC Satellite Cal/Val Overpasses Prediction Service
